Find Starlink 33625

NORAD ID: 63327 Int'l Des: 2025-057 Owner: SPXS Country: US Constellation: starlink operational
LEOCIRCULAR

Current View

Loading 3D Globe...

About Starlink 33625

Starlink 33625 (NORAD 63327) is a starlink constellation satellite (v2 mini) launched Mar 18, 2025 by SPXS of US. It operates in LEO, CIRCULAR orbit with a mass of 575.00 kg.

Upcoming Passes

Passes for default location (London). Set your location on the main map for personalized predictions.

Altitude History

Loading altitude history...

Two-Line Element Set

1 63327U 25057W 26265.55700394 .00009112 00000-0 34016-3 0 9994
2 63327 43.0035 351.4412 0001130 255.5153 104.5573 15.27588185 85973
Epoch: Sep 22, 2026 • Age: 12 hours

Current Status

Altitude 490.3 km
Apogee / Perigee N/A
Velocity 7.62 km/s
Sub-Earth Point -29.90°S, 175.57°W
Launch Date Mar 18, 2025
Age 1.5 years
Type internet

Technical Details

Classification Payload
Mass 575.00 kg
Dry Mass 530.00 kg
Length 0.30 m
Span 29.00 m
Shape ? Box + pan
Manufacturer SPXS
Bus Type Starlink V2MO
Phase Status In Orbit
Owner/State SPXS/US

Most Searched